SCP
-0 -0 -0 -0 0 0 0 0 0 0 0 0 0 0 0 0 0 0 0 -0 -0 -0 -0 -0 -0 -0 -0 -0 -0 -0 0 0 0 0 -0 0 -0 -0 -0 0 0 0 0 0 0 0 0 0 0
-0 -0 -0 0 0 0 0 0 0 0 0 0 0 0 0 0 0 0 0 -0 -0 -0 -0 -0 -0 -0 -0 -0 -0 -0 -0 0 0 0 0 0 0 0 0 0 0 0 0 0 0 0 0 0 0
0 0 0 0 0 0 0 0 0 0 0 0 0 0 0 0 0 0 0 0 0 -0 -0 -0 -0 -0 -0 -0 -0 -0 -0 -0 -0 0 0 0 0 0 0 0 0 0 0 0 0 0 0 0 0
0 0 0 0 0 0 0 0 0 0 0 0 0 -0 0 0 0 0 0 0 0 0 0 -0 -0 -0 -0 -0 -0 -0 -0 -0 0 0 0 0 0 0 0 0 0 0 0 0 0 0 0 0 0
0 0 0 0 0 0 0 0 0 0 0 0 0 0 0 0 0 0 0 0 0 0 0 0 -0 -0 -0 -0 -0 -0 -0 -0 0 0 0 0 0 0 0 0 0 0 0 0 0 0 0 0 0
0 0 0 0 0 0 0 0 0 0 0 0 0 0 0 0 0 0 0 0 0 0 0 0 0 -0 -0 -0 -0 -0 -0 -0 0 0 0 0 0 0 0 0 0 0 0 0 0 0 0 0 0
0 0 0 0 0 0 0 0 0 0 0 0 0 0 0 0 0 0 0 0 0 0 0 0 0 0 0 -0 -0 -0 -0 -0 0 0 0 0 0 0 0 0 0 0 0 0 0 0 0 0 0
0 0 0 0 0 0 0 0 0 0 0 0 0 0 0 0 0 0 0 0 0 0 0 0 0 0 0 0 0 0 0 0 0 0 0 0 0 0 0 0 0 0 0 0 0 0 0 0 0
0 0 0 0 0 0 0 0 0 0 0 0 0 0 0 0 0 0 0 0 0 0 0 0 0 0 0 0 0 0 0 0 0 0 0 0 0 0 0 0 0 0 0 0 0 0 0 0 0
0 0 0 0 0 0 0 0 0 0 0 0 0 0 0 0 0 0 0 0 0 0 0 0 0 0 0 0 0 0 0 0 0 0 0 0 0 0 0 0 0 0 0 0 0 0 0 0 0
0 0 0 0 0 0 0 0 0 0 0 0 0 0 0 0 0 0 0 0 0 0 0 0 0 0 0 0 0 -0 -0 0 0 0 0 0 0 0 0 0 0 0 0 0 0 0 0 0 0
0 0 0 0 0 0 0 0 0 0 0 0 0 0 0 0 0 0 0 0 0 0 0 0 0 0 0 -0 -0 -0 -0 0 0 0 0 0 0 0 0 0 0 0 0 0 0 0 0 0 0
0 0 0 0 0 0 0 0 0 0 0 0 0 0 0 0 0 0 0 0 0 0 0 0 0 0 0 0 0 -0 -0 -0 0 0 0 0 0 0 0 0 0 0 0 0 0 0 0 0 0
0 0 0 0 0 0 0 0 0 0 0 0 0 0 0 0 0 0 0 0 0 0 0 0 0 0 0 0 0 -0 -0 -0 -0 -0 -0 0 0 0 0 0 0 0 0 0 0 0 -0 0 0
0 0 0 0 0 0 0 0 0 0 0 0 0 0 0 0 0 0 0 0 0 0 0 0 0 0 0 0 -0 -0 -0 -0 -0 -0 -0 -0 -0 -0 0 0 0 0 0 0 0 0 0 -0 0
0 0 0 0 0 0 0 0 0 0 0 0 0 0 0 0 0 0 0 0 0 0 0 0 0 0 0 0 -0 -0 -0 -0 -0 -0 -0 -0 -0 -0 -0 -0 -0 -0 0 0 0 0 0 0 -0
0 0 0 0 0 0 0 0 0 0 0 0 0 0 0 0 0 0 0 0 0 0 0 0 0 0 0 0 0 -0 -0 0 -0 -0 -0 -0 -0 0 -0 -0 -0 -0 0 0 0 0 0 -0 -0
0 0 0 0 0 0 0 0 0 0 0 0 0 0 0 0 0 0 0 0 0 0 0 0 0 0 0 0 -0 0 -0 0 0 0 -0 0 0 0 0 0 0 0 -0 0 0 0 0 0 0
0 0 0 0 0 0 0 0 0 0 0 0 0 0 0 0 0 0 0 0 0 0 0 0 0 0 0 0 0 0 -0 0 0 0 0 0 0 0 0 0 0 0 0 0 0 0 0 0 0
0 0 0 0 0 0 0 0 0 0 0 0 0 0 0 0 0 0 0 0 0 0 0 0 0 0 0 -0 -0 -0 -0 0 0 0 0 0 0 0 0 0 0 0 0 0 0 0 0 0 0
0 0 0 0 0 0 0 0 0 0 0 0 0 0 0 0 0 0 0 0 0 0 0 0 0 0 0 0 -0 0 0 0 -0 0 0 0 0 0 0 0 0 0 0 0 0 0 0 0 0
0 0 0 0 0 0 0 0 0 0 0 0 0 0 0 0 0 0 0 0 0 0 0 0 0 0 0 0 0 0 0 0 0 0 0 0 0 0 0 0 0 0 0 0 0 0 0 0 0
0 0 0 0 0 0 0 0 0 0 0 0 0 0 0 0 0 0 0 0 0 0 0 0 0 0 0 -0 0 0 0 0 0 0 0 0 0 0 0 0 0 0 0 0 0 0 0 0 0
0 0 0 0 0 0 0 0 0 0 0 0 0 0 0 0 0 0 0 0 0 0 0 0 0 0 0 0 0 0 0 0 0 0 0 0 0 0 0 0 0 0 0 0 0 0 0 0 0
0 0 0 0 0 0 0 0 0 0 0 0 0 0 0 0 0 0 0 0 0 0 0 0 0 0 0 0 0 0 0 0 0 0 0 0 0 0 0 0 0 0 0 0 0 0 0 0 0
0 0 0 0 0 0 0 0 0 0 0 0 0 0 0 0 0 0 0 0 0 0 0 0 0 0 0 0 0 0 0 0 0 0 0 0 0 0 0 0 0 0 0 0 0 0 0 0 0
0 0 0 0 0 0 0 0 0 0 0 0 0 0 0 0 0 0 0 0 0 0 0 0 0 0 0 0 0 0 0 0 0 0 0 0 0 0 0 0 0 0 0 0 0 0 0 0 0
0 0 0 0 0 0 0 0 0 0 0 0 0 0 0 0 0 0 0 0 0 0 0 0 0 0 0 0 0 0 0 0 0 0 0 0 0 0 0 0 0 0 0 0 0 0 0 0 0
0 0 0 0 0 0 0 0 0 0 0 0 0 0 0 0 0 0 0 0 0 0 0 0 0 0 0 0 0 0 0 0 0 0 0 0 0 0 0 0 0 0 0 0 0 0 0 0 -0
0 0 0 0 0 0 0 0 0 0 0 0 0 0 0 0 0 0 0 0 0 0 0 0 0 0 0 0 0 0 0 0 0 0 0 0 0 0 0 0 0 0 0 0 0 0 0 0 0
Wind_Speed_500mb
6 6 4 1 8 11 4 1 2 4 2 16 34 40 27 20 6 9 2 14 15 17 16 15 10 7 5 3 6 10 17 19 21 22 22 26 29 28 28 29 29 28 29 29 32 35 35 37 39
3 5 3 5 9 7 8 5 5 7 15 43 33 21 27 8 19 10 6 19 18 20 20 16 13 7 6 6 9 10 14 20 24 27 28 30 31 33 36 37 35 36 37 37 32 31 35 34 39
5 3 1 8 7 8 8 6 7 7 11 9 15 22 10 10 17 10 13 13 15 13 14 16 17 14 8 10 16 19 20 21 21 26 30 33 36 35 39 42 41 39 41 41 41 39 36 35 37
4 5 9 8 4 5 8 7 9 14 13 12 36 19 15 7 7 11 5 8 12 13 17 17 16 15 16 14 11 21 28 27 28 28 28 33 35 37 41 43 45 46 45 46 47 44 41 40 36
7 5 8 8 2 3 3 2 17 6 10 14 7 13 14 21 19 10 5 6 8 15 18 20 22 21 19 18 17 18 19 24 32 36 38 37 37 39 42 45 45 48 49 49 50 49 47 44 43
4 5 9 6 5 4 6 7 8 9 17 15 20 19 11 22 15 5 1 3 9 12 16 19 20 21 21 21 22 23 22 23 26 32 39 46 47 45 44 46 47 50 52 54 53 53 52 52 49
10 7 8 8 12 3 5 7 9 13 13 7 29 10 21 23 15 6 2 2 2 7 11 16 18 21 24 27 28 27 27 27 28 30 35 40 45 49 52 51 50 49 53 57 57 56 56 56 55
5 8 6 3 10 7 3 8 11 7 7 18 19 16 15 34 20 10 7 6 5 5 10 14 15 19 23 28 31 35 35 34 32 33 34 35 38 45 48 52 52 51 51 55 60 62 61 60 59
3 8 3 7 13 7 7 7 6 7 19 11 16 22 25 37 22 15 14 9 5 7 11 15 20 25 29 33 36 38 39 37 36 36 38 37 39 37 40 47 51 54 53 51 57 61 65 66 63
8 7 10 5 9 9 8 10 24 13 16 8 22 31 35 28 20 21 11 3 1 5 13 20 25 31 33 36 39 41 43 43 39 37 38 40 42 43 48 45 46 51 52 57 57 59 63 69 70
2 6 8 7 10 12 10 8 19 25 11 32 47 48 38 30 26 19 11 3 3 7 11 17 24 29 34 39 42 41 43 42 42 40 40 43 45 45 48 53 53 52 54 51 54 57 65 71 76
4 1 6 14 12 8 10 14 11 31 14 23 36 42 41 35 24 15 10 7 5 6 16 22 26 30 35 38 40 43 45 47 45 43 45 51 53 57 57 55 57 59 57 59 56 47 49 60 76
1 4 5 9 14 19 15 9 12 27 26 30 44 43 38 32 26 21 17 12 4 6 12 19 26 31 35 37 39 43 46 48 50 46 44 49 58 63 66 67 63 60 64 64 65 72 64 56 60
7 12 20 15 15 18 13 3 1 20 35 42 46 45 39 33 26 24 19 14 4 8 12 18 25 29 32 36 40 44 49 54 55 56 54 54 58 64 68 71 69 68 65 68 72 72 84 76 65
10 13 16 6 12 10 12 7 20 25 49 52 51 47 42 34 30 26 22 15 7 8 14 19 23 28 33 39 42 45 50 55 60 62 65 69 73 73 74 77 77 71 71 72 74 78 80 88 81
9 6 9 5 10 5 13 23 15 33 61 64 58 54 50 44 34 27 23 15 9 10 14 19 25 29 34 41 45 49 53 58 61 63 68 72 76 79 82 85 84 80 77 74 79 82 85 85 90
12 6 6 17 11 7 13 18 5 38 63 53 65 61 53 44 38 33 28 21 13 14 19 21 27 33 38 43 47 50 56 59 63 66 69 73 75 79 84 87 89 85 80 80 77 77 79 84 92
8 9 10 13 7 8 10 32 12 38 62 68 68 64 58 53 46 38 32 25 17 19 22 23 29 35 41 48 51 55 58 61 65 69 71 75 78 81 85 87 91 93 92 85 78 71 71 82 83
4 7 14 18 12 8 18 31 42 40 46 48 58 71 69 63 48 45 38 28 23 21 22 25 32 39 45 50 60 65 66 67 69 73 76 77 81 85 92 97 98 97 90 84 81 70 73 79 74
7 8 16 19 6 11 20 25 36 21 31 69 72 76 82 65 58 53 42 32 27 23 21 25 33 41 45 51 57 61 68 72 73 78 80 84 87 89 95 100 100 93 91 82 73 75 74 77 66
9 11 11 16 12 10 17 13 25 9 42 44 59 70 83 80 67 56 46 35 27 22 22 26 34 41 46 52 56 60 67 73 80 82 84 87 91 97 99 99 97 88 79 76 64 61 67 79 71
11 10 7 10 10 7 8 18 9 10 25 22 45 68 82 84 69 60 51 41 30 21 20 25 33 42 47 52 57 61 68 75 78 84 86 89 92 96 101 102 95 91 89 85 81 77 65 73 84
15 4 3 4 8 8 9 9 11 5 18 32 34 69 78 89 77 64 54 41 28 19 19 25 34 42 47 51 57 61 66 71 79 85 90 93 96 96 100 102 96 90 91 84 79 81 72 66 82
9 5 6 8 5 4 10 15 8 11 15 13 13 57 74 89 77 63 51 39 24 18 19 25 36 42 47 53 56 60 66 72 79 85 92 95 98 100 101 101 101 91 87 72 68 70 77 76 66
7 10 7 10 5 15 7 8 28 20 21 16 16 44 71 88 77 65 54 38 25 19 21 28 37 43 48 54 58 61 66 71 78 84 90 96 98 100 101 101 104 94 81 77 82 76 69 78 75
11 15 11 13 7 18 2 17 12 10 17 30 35 41 58 82 76 66 52 37 25 20 22 30 38 44 50 56 59 61 65 72 79 83 87 93 95 100 100 103 103 93 86 79 68 63 78 78 71
9 10 2 5 6 6 10 16 15 9 15 8 17 43 61 85 81 69 52 37 25 21 22 31 39 44 52 57 61 65 68 73 81 86 88 91 93 99 101 100 98 93 87 78 82 86 85 82 77
7 11 8 5 4 12 14 25 31 16 21 10 14 40 59 81 77 66 52 36 26 22 25 32 39 47 53 58 62 68 72 78 84 89 91 90 92 97 101 103 98 92 85 83 76 71 80 84 88
4 7 3 6 10 12 5 27 14 16 21 22 29 53 64 87 85 69 50 35 27 25 28 35 43 52 55 60 65 72 77 82 88 91 90 89 94 97 100 100 97 88 82 81 73 80 79 81 89
5 20 26 12 13 7 8 44 12 17 17 25 39 60 69 85 79 63 48 37 30 26 28 37 47 50 55 62 68 74 82 86 89 92 91 91 95 96 98 97 91 88 81 77 76 74 70 74 85
Wind_Direction_500mb
108 127 118 102 58 67 346 167 311 133 86 64 87 97 110 71 57 154 139 356 354 342 336 339 4 25 34 321 308 300 305 304 301 300 298 299 298 292 290 293 292 293 298 298 291 278 268 271 273
110 128 143 96 83 64 284 273 127 172 121 112 87 83 53 65 68 67 148 11 347 336 333 344 335 329 272 229 235 278 287 287 291 294 294 293 292 290 290 293 292 293 295 296 295 283 274 267 269
121 131 99 90 107 152 181 213 204 121 125 145 111 68 61 355 57 70 44 8 3 326 351 1 338 326 293 246 232 240 255 264 285 285 289 288 288 288 286 287 288 288 290 291 292 292 279 268 262
182 131 66 77 94 210 185 188 213 139 86 94 119 74 78 50 94 112 56 3 320 349 5 6 8 0 348 332 284 263 263 259 261 269 275 278 281 281 281 280 283 283 284 286 288 287 284 274 266
143 112 65 88 151 248 212 179 175 112 103 126 124 130 99 102 120 126 88 49 52 58 57 55 51 43 28 15 357 335 310 296 285 278 273 274 276 275 276 281 281 282 282 281 282 284 283 276 270
67 62 64 154 206 285 297 159 124 102 117 121 111 107 132 146 164 180 286 8 56 60 55 51 45 39 34 28 19 9 352 328 303 286 279 273 273 273 276 276 278 280 280 280 280 279 278 276 273
111 86 161 134 169 206 207 136 131 128 114 86 138 101 153 170 185 177 199 102 71 62 59 50 37 25 14 6 357 348 336 325 322 313 298 282 278 273 272 276 277 278 278 278 278 276 274 273 271
81 89 98 117 180 204 258 111 121 119 146 134 173 175 180 181 184 191 206 196 159 87 52 41 25 14 4 356 349 342 332 318 305 298 297 301 292 278 274 271 271 271 274 279 279 275 272 271 268
39 62 116 162 155 201 200 143 149 136 143 165 185 167 174 171 180 194 200 166 120 54 29 15 10 6 3 357 349 342 336 327 319 307 296 291 292 298 283 273 273 268 268 272 276 276 274 272 268
74 96 194 215 173 182 207 191 158 160 145 118 141 161 165 173 189 203 196 210 299 1 5 7 3 1 0 360 357 351 346 342 336 329 323 314 304 298 295 294 288 275 271 267 267 269 270 267 269
128 153 181 210 196 180 212 173 176 153 232 200 185 171 175 187 196 208 218 229 357 351 353 356 358 359 1 3 1 356 353 346 343 340 336 333 327 316 303 293 293 292 279 277 274 269 270 268 266
351 72 197 175 203 203 192 175 178 189 233 239 202 187 183 190 190 193 199 212 243 342 358 3 1 1 2 2 356 354 352 352 351 346 339 336 331 329 324 315 304 297 292 286 277 281 279 278 271
149 293 287 176 198 220 209 202 210 226 233 198 185 182 185 187 191 199 206 211 223 329 334 349 351 356 356 353 351 352 352 350 349 345 340 334 333 332 326 322 315 302 298 294 284 275 276 278 279
312 289 280 273 231 215 205 200 197 203 173 175 186 190 196 203 203 202 201 206 239 338 338 347 350 352 349 350 352 353 350 348 344 341 342 340 335 331 329 325 319 311 303 299 295 286 274 276 275
324 332 328 230 200 205 181 262 235 207 187 187 194 198 199 198 200 203 203 212 238 327 333 340 348 350 348 350 351 350 347 342 339 339 338 339 339 336 331 327 324 317 306 299 294 292 286 276 271
20 52 358 311 142 203 158 262 257 213 191 198 200 197 197 200 204 207 210 220 247 322 331 340 342 343 346 346 346 346 343 339 335 336 338 338 337 336 331 328 326 322 313 300 292 293 291 285 277
15 281 271 314 207 125 187 268 259 204 199 203 207 202 200 199 200 209 216 223 247 300 322 329 337 339 341 342 342 342 338 336 336 336 335 335 333 331 329 326 324 321 311 305 298 286 289 289 282
265 289 262 239 284 205 236 267 253 217 205 214 210 208 204 206 212 212 218 229 257 287 313 325 337 339 339 339 338 336 335 334 333 334 334 335 333 329 326 322 319 320 314 301 292 288 278 281 287
207 226 245 263 233 250 236 253 269 226 217 224 218 213 209 210 209 211 214 226 252 280 304 324 334 336 337 338 336 335 336 335 333 331 333 334 335 334 331 329 327 322 314 303 282 283 280 276 282
219 270 270 281 281 188 266 250 268 190 223 220 217 213 214 208 204 203 208 224 245 276 306 324 333 336 336 337 337 336 333 332 331 331 332 335 336 334 332 330 327 321 312 304 293 271 281 278 276
221 197 245 240 330 278 312 260 243 231 241 235 227 226 224 214 203 203 208 223 246 275 305 323 333 334 334 334 332 330 326 325 327 329 331 331 332 333 331 330 327 320 309 300 288 278 276 271 268
273 209 258 288 342 260 31 292 259 238 256 224 222 219 222 215 209 209 210 221 239 268 302 320 329 332 333 333 331 329 327 326 325 325 326 327 328 328 330 329 325 316 308 297 277 271 268 270 263
224 106 227 233 254 325 218 251 254 65 269 256 220 219 216 217 208 205 209 220 236 263 296 316 330 332 331 333 330 326 323 321 321 323 323 326 324 326 328 326 321 312 304 297 283 271 269 268 263
112 42 49 52 48 314 234 195 234 194 216 254 223 216 212 214 205 207 210 219 234 269 298 319 329 329 331 329 327 325 322 321 322 324 322 323 323 324 326 323 317 311 301 295 285 275 259 261 260
98 70 325 327 352 235 166 236 256 248 247 236 236 209 216 209 199 201 208 217 236 266 297 317 326 328 330 329 326 323 321 322 322 323 323 322 322 322 325 320 315 309 302 293 288 279 268 262 261
170 166 166 245 237 285 98 242 253 239 280 279 272 247 215 204 201 204 211 221 240 270 299 316 322 327 329 324 322 323 323 323 321 322 321 320 320 320 322 317 312 308 301 295 289 278 261 260 262
171 178 168 73 91 353 247 282 288 285 283 290 219 203 207 204 202 205 210 224 244 267 294 314 319 325 324 322 322 322 322 322 322 321 321 321 319 320 319 315 311 305 300 293 279 273 263 256 254
156 156 78 18 260 265 262 278 255 246 261 185 219 209 206 203 202 205 213 225 244 267 294 309 318 324 322 321 322 324 324 324 322 322 323 321 318 319 318 315 311 304 296 292 290 282 267 259 254
129 210 134 153 166 204 292 275 192 200 215 199 215 217 210 205 204 206 213 226 243 268 295 311 320 322 322 323 325 325 325 324 324 323 322 321 320 320 317 314 309 300 290 287 283 279 271 261 253
243 203 177 189 227 247 157 261 173 188 222 186 215 219 221 214 209 210 216 229 245 273 298 316 320 323 324 324 325 325 326 326 325 324 325 323 321 320 317 313 307 297 291 284 282 282 270 261 252
Wind_Speed_850mb
6 6 4 1 8 11 4 1 2 4 2 16 34 40 27 20 6 9 2 14 15 17 16 15 10 7 5 3 6 10 17 19 21 22 22 26 29 28 28 29 29 28 29 29 32 35 35 37 39
3 5 3 5 9 7 8 5 5 7 15 43 33 21 27 8 19 10 6 19 18 20 20 16 13 7 6 6 9 10 14 20 24 27 28 30 31 33 36 37 35 36 37 37 32 31 35 34 39
5 3 1 8 7 8 8 6 7 7 11 9 15 22 10 10 17 10 13 13 15 13 14 16 17 14 8 10 16 19 20 21 21 26 30 33 36 35 39 42 41 39 41 41 41 39 36 35 37
4 5 9 8 4 5 8 7 9 14 13 12 36 19 15 7 7 11 5 8 12 13 17 17 16 15 16 14 11 21 28 27 28 28 28 33 35 37 41 43 45 46 45 46 47 44 41 40 36
7 5 8 8 2 3 3 2 17 6 10 14 7 13 14 21 19 10 5 6 8 15 18 20 22 21 19 18 17 18 19 24 32 36 38 37 37 39 42 45 45 48 49 49 50 49 47 44 43
4 5 9 6 5 4 6 7 8 9 17 15 20 19 11 22 15 5 1 3 9 12 16 19 20 21 21 21 22 23 22 23 26 32 39 46 47 45 44 46 47 50 52 54 53 53 52 52 49
10 7 8 8 12 3 5 7 9 13 13 7 29 10 21 23 15 6 2 2 2 7 11 16 18 21 24 27 28 27 27 27 28 30 35 40 45 49 52 51 50 49 53 57 57 56 56 56 55
5 8 6 3 10 7 3 8 11 7 7 18 19 16 15 34 20 10 7 6 5 5 10 14 15 19 23 28 31 35 35 34 32 33 34 35 38 45 48 52 52 51 51 55 60 62 61 60 59
3 8 3 7 13 7 7 7 6 7 19 11 16 22 25 37 22 15 14 9 5 7 11 15 20 25 29 33 36 38 39 37 36 36 38 37 39 37 40 47 51 54 53 51 57 61 65 66 63
8 7 10 5 9 9 8 10 24 13 16 8 22 31 35 28 20 21 11 3 1 5 13 20 25 31 33 36 39 41 43 43 39 37 38 40 42 43 48 45 46 51 52 57 57 59 63 69 70
2 6 8 7 10 12 10 8 19 25 11 32 47 48 38 30 26 19 11 3 3 7 11 17 24 29 34 39 42 41 43 42 42 40 40 43 45 45 48 53 53 52 54 51 54 57 65 71 76
4 1 6 14 12 8 10 14 11 31 14 23 36 42 41 35 24 15 10 7 5 6 16 22 26 30 35 38 40 43 45 47 45 43 45 51 53 57 57 55 57 59 57 59 56 47 49 60 76
1 4 5 9 14 19 15 9 12 27 26 30 44 43 38 32 26 21 17 12 4 6 12 19 26 31 35 37 39 43 46 48 50 46 44 49 58 63 66 67 63 60 64 64 65 72 64 56 60
7 12 20 15 15 18 13 3 1 20 35 42 46 45 39 33 26 24 19 14 4 8 12 18 25 29 32 36 40 44 49 54 55 56 54 54 58 64 68 71 69 68 65 68 72 72 84 76 65
10 13 16 6 12 10 12 7 20 25 49 52 51 47 42 34 30 26 22 15 7 8 14 19 23 28 33 39 42 45 50 55 60 62 65 69 73 73 74 77 77 71 71 72 74 78 80 88 81
9 6 9 5 10 5 13 23 15 33 61 64 58 54 50 44 34 27 23 15 9 10 14 19 25 29 34 41 45 49 53 58 61 63 68 72 76 79 82 85 84 80 77 74 79 82 85 85 90
12 6 6 17 11 7 13 18 5 38 63 53 65 61 53 44 38 33 28 21 13 14 19 21 27 33 38 43 47 50 56 59 63 66 69 73 75 79 84 87 89 85 80 80 77 77 79 84 92
8 9 10 13 7 8 10 32 12 38 62 68 68 64 58 53 46 38 32 25 17 19 22 23 29 35 41 48 51 55 58 61 65 69 71 75 78 81 85 87 91 93 92 85 78 71 71 82 83
4 7 14 18 12 8 18 31 42 40 46 48 58 71 69 63 48 45 38 28 23 21 22 25 32 39 45 50 60 65 66 67 69 73 76 77 81 85 92 97 98 97 90 84 81 70 73 79 74
7 8 16 19 6 11 20 25 36 21 31 69 72 76 82 65 58 53 42 32 27 23 21 25 33 41 45 51 57 61 68 72 73 78 80 84 87 89 95 100 100 93 91 82 73 75 74 77 66
9 11 11 16 12 10 17 13 25 9 42 44 59 70 83 80 67 56 46 35 27 22 22 26 34 41 46 52 56 60 67 73 80 82 84 87 91 97 99 99 97 88 79 76 64 61 67 79 71
11 10 7 10 10 7 8 18 9 10 25 22 45 68 82 84 69 60 51 41 30 21 20 25 33 42 47 52 57 61 68 75 78 84 86 89 92 96 101 102 95 91 89 85 81 77 65 73 84
15 4 3 4 8 8 9 9 11 5 18 32 34 69 78 89 77 64 54 41 28 19 19 25 34 42 47 51 57 61 66 71 79 85 90 93 96 96 100 102 96 90 91 84 79 81 72 66 82
9 5 6 8 5 4 10 15 8 11 15 13 13 57 74 89 77 63 51 39 24 18 19 25 36 42 47 53 56 60 66 72 79 85 92 95 98 100 101 101 101 91 87 72 68 70 77 76 66
7 10 7 10 5 15 7 8 28 20 21 16 16 44 71 88 77 65 54 38 25 19 21 28 37 43 48 54 58 61 66 71 78 84 90 96 98 100 101 101 104 94 81 77 82 76 69 78 75
11 15 11 13 7 18 2 17 12 10 17 30 35 41 58 82 76 66 52 37 25 20 22 30 38 44 50 56 59 61 65 72 79 83 87 93 95 100 100 103 103 93 86 79 68 63 78 78 71
9 10 2 5 6 6 10 16 15 9 15 8 17 43 61 85 81 69 52 37 25 21 22 31 39 44 52 57 61 65 68 73 81 86 88 91 93 99 101 100 98 93 87 78 82 86 85 82 77
7 11 8 5 4 12 14 25 31 16 21 10 14 40 59 81 77 66 52 36 26 22 25 32 39 47 53 58 62 68 72 78 84 89 91 90 92 97 101 103 98 92 85 83 76 71 80 84 88
4 7 3 6 10 12 5 27 14 16 21 22 29 53 64 87 85 69 50 35 27 25 28 35 43 52 55 60 65 72 77 82 88 91 90 89 94 97 100 100 97 88 82 81 73 80 79 81 89
5 20 26 12 13 7 8 44 12 17 17 25 39 60 69 85 79 63 48 37 30 26 28 37 47 50 55 62 68 74 82 86 89 92 91 91 95 96 98 97 91 88 81 77 76 74 70 74 85
Wind_Direction_850mb
108 127 118 102 58 67 346 167 311 133 86 64 87 97 110 71 57 154 139 356 354 342 336 339 4 25 34 321 308 300 305 304 301 300 298 299 298 292 290 293 292 293 298 298 291 278 268 271 273
110 128 143 96 83 64 284 273 127 172 121 112 87 83 53 65 68 67 148 11 347 336 333 344 335 329 272 229 235 278 287 287 291 294 294 293 292 290 290 293 292 293 295 296 295 283 274 267 269
121 131 99 90 107 152 181 213 204 121 125 145 111 68 61 355 57 70 44 8 3 326 351 1 338 326 293 246 232 240 255 264 285 285 289 288 288 288 286 287 288 288 290 291 292 292 279 268 262
182 131 66 77 94 210 185 188 213 139 86 94 119 74 78 50 94 112 56 3 320 349 5 6 8 0 348 332 284 263 263 259 261 269 275 278 281 281 281 280 283 283 284 286 288 287 284 274 266
143 112 65 88 151 248 212 179 175 112 103 126 124 130 99 102 120 126 88 49 52 58 57 55 51 43 28 15 357 335 310 296 285 278 273 274 276 275 276 281 281 282 282 281 282 284 283 276 270
67 62 64 154 206 285 297 159 124 102 117 121 111 107 132 146 164 180 286 8 56 60 55 51 45 39 34 28 19 9 352 328 303 286 279 273 273 273 276 276 278 280 280 280 280 279 278 276 273
111 86 161 134 169 206 207 136 131 128 114 86 138 101 153 170 185 177 199 102 71 62 59 50 37 25 14 6 357 348 336 325 322 313 298 282 278 273 272 276 277 278 278 278 278 276 274 273 271
81 89 98 117 180 204 258 111 121 119 146 134 173 175 180 181 184 191 206 196 159 87 52 41 25 14 4 356 349 342 332 318 305 298 297 301 292 278 274 271 271 271 274 279 279 275 272 271 268
39 62 116 162 155 201 200 143 149 136 143 165 185 167 174 171 180 194 200 166 120 54 29 15 10 6 3 357 349 342 336 327 319 307 296 291 292 298 283 273 273 268 268 272 276 276 274 272 268
74 96 194 215 173 182 207 191 158 160 145 118 141 161 165 173 189 203 196 210 299 1 5 7 3 1 0 360 357 351 346 342 336 329 323 314 304 298 295 294 288 275 271 267 267 269 270 267 269
128 153 181 210 196 180 212 173 176 153 232 200 185 171 175 187 196 208 218 229 357 351 353 356 358 359 1 3 1 356 353 346 343 340 336 333 327 316 303 293 293 292 279 277 274 269 270 268 266
351 72 197 175 203 203 192 175 178 189 233 239 202 187 183 190 190 193 199 212 243 342 358 3 1 1 2 2 356 354 352 352 351 346 339 336 331 329 324 315 304 297 292 286 277 281 279 278 271
149 293 287 176 198 220 209 202 210 226 233 198 185 182 185 187 191 199 206 211 223 329 334 349 351 356 356 353 351 352 352 350 349 345 340 334 333 332 326 322 315 302 298 294 284 275 276 278 279
312 289 280 273 231 215 205 200 197 203 173 175 186 190 196 203 203 202 201 206 239 338 338 347 350 352 349 350 352 353 350 348 344 341 342 340 335 331 329 325 319 311 303 299 295 286 274 276 275
324 332 328 230 200 205 181 262 235 207 187 187 194 198 199 198 200 203 203 212 238 327 333 340 348 350 348 350 351 350 347 342 339 339 338 339 339 336 331 327 324 317 306 299 294 292 286 276 271
20 52 358 311 142 203 158 262 257 213 191 198 200 197 197 200 204 207 210 220 247 322 331 340 342 343 346 346 346 346 343 339 335 336 338 338 337 336 331 328 326 322 313 300 292 293 291 285 277
15 281 271 314 207 125 187 268 259 204 199 203 207 202 200 199 200 209 216 223 247 300 322 329 337 339 341 342 342 342 338 336 336 336 335 335 333 331 329 326 324 321 311 305 298 286 289 289 282
265 289 262 239 284 205 236 267 253 217 205 214 210 208 204 206 212 212 218 229 257 287 313 325 337 339 339 339 338 336 335 334 333 334 334 335 333 329 326 322 319 320 314 301 292 288 278 281 287
207 226 245 263 233 250 236 253 269 226 217 224 218 213 209 210 209 211 214 226 252 280 304 324 334 336 337 338 336 335 336 335 333 331 333 334 335 334 331 329 327 322 314 303 282 283 280 276 282
219 270 270 281 281 188 266 250 268 190 223 220 217 213 214 208 204 203 208 224 245 276 306 324 333 336 336 337 337 336 333 332 331 331 332 335 336 334 332 330 327 321 312 304 293 271 281 278 276
221 197 245 240 330 278 312 260 243 231 241 235 227 226 224 214 203 203 208 223 246 275 305 323 333 334 334 334 332 330 326 325 327 329 331 331 332 333 331 330 327 320 309 300 288 278 276 271 268
273 209 258 288 342 260 31 292 259 238 256 224 222 219 222 215 209 209 210 221 239 268 302 320 329 332 333 333 331 329 327 326 325 325 326 327 328 328 330 329 325 316 308 297 277 271 268 270 263
224 106 227 233 254 325 218 251 254 65 269 256 220 219 216 217 208 205 209 220 236 263 296 316 330 332 331 333 330 326 323 321 321 323 323 326 324 326 328 326 321 312 304 297 283 271 269 268 263
112 42 49 52 48 314 234 195 234 194 216 254 223 216 212 214 205 207 210 219 234 269 298 319 329 329 331 329 327 325 322 321 322 324 322 323 323 324 326 323 317 311 301 295 285 275 259 261 260
98 70 325 327 352 235 166 236 256 248 247 236 236 209 216 209 199 201 208 217 236 266 297 317 326 328 330 329 326 323 321 322 322 323 323 322 322 322 325 320 315 309 302 293 288 279 268 262 261
170 166 166 245 237 285 98 242 253 239 280 279 272 247 215 204 201 204 211 221 240 270 299 316 322 327 329 324 322 323 323 323 321 322 321 320 320 320 322 317 312 308 301 295 289 278 261 260 262
171 178 168 73 91 353 247 282 288 285 283 290 219 203 207 204 202 205 210 224 244 267 294 314 319 325 324 322 322 322 322 322 322 321 321 321 319 320 319 315 311 305 300 293 279 273 263 256 254
156 156 78 18 260 265 262 278 255 246 261 185 219 209 206 203 202 205 213 225 244 267 294 309 318 324 322 321 322 324 324 324 322 322 323 321 318 319 318 315 311 304 296 292 290 282 267 259 254
129 210 134 153 166 204 292 275 192 200 215 199 215 217 210 205 204 206 213 226 243 268 295 311 320 322 322 323 325 325 325 324 324 323 322 321 320 320 317 314 309 300 290 287 283 279 271 261 253
243 203 177 189 227 247 157 261 173 188 222 186 215 219 221 214 209 210 216 229 245 273 298 316 320 323 324 324 325 325 326 326 325 324 325 323 321 320 317 313 307 297 291 284 282 282 270 261 252